Time,TemperatureF,DewpointF,PressureIn,WindDirection,WindDirectionDegrees,WindSpeedMPH,WindSpeedGustMPH,Humidity,HourlyPrecipIn,Conditions,Clouds,dailyrainin,SoftwareType,DateUTC
2013-01-18 00:03:00,31.9,29.9,30.60,SSW,203,0.0,0.0,92,0.00,,,0.00,WUHU216HW,2013-01-18 08:03:00,
2013-01-18 00:08:00,31.9,30.1,30.60,SSW,203,0.0,0.0,93,0.00,,,0.00,WUHU216HW,2013-01-18 08:08:00,
2013-01-18 00:13:00,31.9,30.1,30.60,SSW,203,0.0,0.0,93,0.00,,,0.00,WUHU216HW,2013-01-18 08:13:00,
2013-01-18 00:18:00,32.0,30.2,30.60,SSW,203,0.0,0.0,93,0.00,,,0.00,WUHU216HW,2013-01-18 08:18:00,
2013-01-18 00:23:00,32.0,30.2,30.60,SSW,203,0.0,0.0,93,0.00,,,0.00,WUHU216HW,2013-01-18 08:23:00,
2013-01-18 00:28:00,32.0,30.2,30.60,SSW,203,0.0,0.0,93,0.00,,,0.00,WUHU216HW,2013-01-18 08:28:00,
2013-01-18 00:33:00,32.0,30.2,30.60,SSW,203,0.0,0.0,93,0.00,,,0.00,WUHU216HW,2013-01-18 08:33:00,
2013-01-18 00:38:00,32.0,30.1,30.60,SSW,203,0.0,0.0,92,0.00,,,0.00,WUHU216HW,2013-01-18 08:38:00,
2013-01-18 00:43:00,32.0,30.1,30.60,SSW,203,0.0,0.0,92,0.00,,,0.00,WUHU216HW,2013-01-18 08:43:00,
2013-01-18 00:48:00,32.0,30.1,30.60,SSW,203,0.0,0.4,92,0.00,,,0.00,WUHU216HW,2013-01-18 08:48:00,
2013-01-18 00:53:00,32.0,30.1,30.60,SSW,203,0.0,0.4,92,0.00,,,0.00,WUHU216HW,2013-01-18 08:53:00,
2013-01-18 00:58:00,31.9,29.9,30.60,SW,225,0.0,0.0,92,0.00,,,0.00,WUHU216HW,2013-01-18 08:58:00,
2013-01-18 01:03:00,31.7,29.7,30.60,NW,315,0.0,0.0,92,0.00,,,0.00,WUHU216HW,2013-01-18 09:03:00,
2013-01-18 01:08:00,31.5,29.5,30.60,NW,315,0.0,0.0,92,0.00,,,0.00,WUHU216HW,2013-01-18 09:08:00,
2013-01-18 01:13:00,31.7,29.9,30.60,NW,315,0.0,0.0,93,0.00,,,0.00,WUHU216HW,2013-01-18 09:13:00,
2013-01-18 01:18:00,31.7,29.9,30.60,NW,315,0.0,0.0,93,0.00,,,0.00,WUHU216HW,2013-01-18 09:18:00,
2013-01-18 01:23:00,31.7,29.9,30.60,NW,315,0.0,0.0,93,0.00,,,0.00,WUHU216HW,2013-01-18 09:23:00,
2013-01-18 01:28:00,31.9,30.1,30.60,NW,315,0.0,0.0,93,0.00,,,0.00,WUHU216HW,2013-01-18 09:28:00,
2013-01-18 01:33:00,31.9,29.9,30.60,NW,315,0.0,0.0,92,0.00,,,0.00,WUHU216HW,2013-01-18 09:33:00,
2013-01-18 01:38:00,31.9,29.9,30.60,NW,315,0.0,0.4,92,0.00,,,0.00,WUHU216HW,2013-01-18 09:38:00,
2013-01-18 01:43:00,31.9,29.9,30.59,West,270,0.0,0.4,92,0.00,,,0.00,WUHU216HW,2013-01-18 09:43:00,
2013-01-18 01:48:00,31.9,29.9,30.59,SSW,203,0.2,0.4,92,0.00,,,0.00,WUHU216HW,2013-01-18 09:48:00,
2013-01-18 01:53:00,31.9,29.9,30.59,SW,225,1.1,1.3,92,0.00,,,0.00,WUHU216HW,2013-01-18 09:53:00,
2013-01-18 01:58:00,31.7,29.7,30.59,SW,225,0.0,1.3,92,0.00,,,0.00,WUHU216HW,2013-01-18 09:58:00,
2013-01-18 02:03:00,31.5,29.5,30.59,WSW,248,0.0,0.0,92,0.00,,,0.00,WUHU216HW,2013-01-18 10:03:00,
2013-01-18 02:08:00,31.3,29.4,30.59,WSW,248,0.0,0.0,92,0.00,,,0.00,WUHU216HW,2013-01-18 10:08:00,
2013-01-18 02:13:00,31.1,29.3,30.59,SW,225,1.1,1.1,93,0.00,,,0.00,WUHU216HW,2013-01-18 10:13:00,
2013-01-18 02:18:00,31.1,29.3,30.59,SW,225,0.0,1.1,93,0.00,,,0.00,WUHU216HW,2013-01-18 10:18:00,
2013-01-18 02:23:00,31.1,29.3,30.59,SW,225,0.0,0.0,93,0.00,,,0.00,WUHU216HW,2013-01-18 10:23:00,
2013-01-18 02:28:00,31.3,29.5,30.59,SW,225,0.0,0.2,93,0.00,,,0.00,WUHU216HW,2013-01-18 10:28:00,
2013-01-18 02:33:00,31.3,29.5,30.59,SW,225,0.0,0.2,93,0.00,,,0.00,WUHU216HW,2013-01-18 10:33:00,
2013-01-18 02:38:00,31.3,29.5,30.59,SW,225,0.0,0.2,93,0.00,,,0.00,WUHU216HW,2013-01-18 10:38:00,
2013-01-18 02:43:00,31.3,29.5,30.59,SW,225,0.0,0.2,93,0.00,,,0.00,WUHU216HW,2013-01-18 10:43:00,
2013-01-18 02:48:00,31.3,29.5,30.59,SW,225,0.0,0.0,93,0.00,,,0.00,WUHU216HW,2013-01-18 10:48:00,
2013-01-18 02:53:00,31.1,29.3,30.59,SW,225,0.0,0.0,93,0.00,,,0.00,WUHU216HW,2013-01-18 10:53:00,
2013-01-18 02:58:00,31.0,29.2,30.59,SW,225,0.0,0.0,93,0.00,,,0.00,WUHU216HW,2013-01-18 10:58:00,
2013-01-18 03:03:00,31.0,29.2,30.59,WNW,293,0.0,0.2,93,0.00,,,0.00,WUHU216HW,2013-01-18 11:03:00,
2013-01-18 03:08:00,30.8,29.0,30.59,WNW,293,0.0,0.2,93,0.00,,,0.00,WUHU216HW,2013-01-18 11:08:00,
2013-01-18 03:13:00,30.8,29.0,30.59,NW,315,0.0,0.4,93,0.00,,,0.00,WUHU216HW,2013-01-18 11:13:00,
2013-01-18 03:18:00,30.6,28.8,30.59,NNW,338,0.0,0.7,93,0.00,,,0.00,WUHU216HW,2013-01-18 11:18:00,
2013-01-18 03:23:00,30.6,28.8,30.59,NNW,338,0.0,0.7,93,0.00,,,0.00,WUHU216HW,2013-01-18 11:23:00,
2013-01-18 03:28:00,30.6,28.8,30.59,NNW,338,0.0,0.7,93,0.00,,,0.00,WUHU216HW,2013-01-18 11:28:00,
2013-01-18 03:33:00,30.6,28.8,30.59,NNW,338,0.0,0.0,93,0.00,,,0.00,WUHU216HW,2013-01-18 11:33:00,
2013-01-18 03:38:00,30.6,28.8,30.58,NNW,338,0.0,0.0,93,0.00,,,0.00,WUHU216HW,2013-01-18 11:38:00,
2013-01-18 03:43:00,30.8,29.0,30.59,SW,225,0.2,0.2,93,0.00,,,0.00,WUHU216HW,2013-01-18 11:43:00,
2013-01-18 03:48:00,31.1,29.3,30.58,SW,225,0.0,0.2,93,0.00,,,0.00,WUHU216HW,2013-01-18 11:48:00,
2013-01-18 03:53:00,31.1,29.3,30.58,SW,225,0.0,0.2,93,0.00,,,0.00,WUHU216HW,2013-01-18 11:53:00,
2013-01-18 03:58:00,31.0,29.2,30.58,NNW,338,0.0,0.2,93,0.00,,,0.00,WUHU216HW,2013-01-18 11:58:00,
2013-01-18 04:03:00,30.6,28.8,30.58,NNW,338,0.0,0.7,93,0.00,,,0.00,WUHU216HW,2013-01-18 12:03:00,
2013-01-18 04:08:00,30.6,28.8,30.58,NNW,338,0.0,0.7,93,0.00,,,0.00,WUHU216HW,2013-01-18 12:08:00,
2013-01-18 04:13:00,30.8,29.0,30.57,NNE,23,0.4,0.7,93,0.00,,,0.00,WUHU216HW,2013-01-18 12:13:00,
2013-01-18 04:18:00,31.0,29.2,30.57,SSE,158,0.4,0.7,93,0.00,,,0.00,WUHU216HW,2013-01-18 12:18:00,
2013-01-18 04:23:00,31.0,29.2,30.58,SSE,158,0.0,0.9,93,0.00,,,0.00,WUHU216HW,2013-01-18 12:23:00,
2013-01-18 04:28:00,31.0,29.2,30.57,South,180,0.4,0.9,93,0.00,,,0.00,WUHU216HW,2013-01-18 12:28:00,
2013-01-18 04:33:00,31.0,29.2,30.57,NNW,338,0.0,0.7,93,0.00,,,0.00,WUHU216HW,2013-01-18 12:33:00,
2013-01-18 04:38:00,31.0,29.2,30.57,North,0,0.0,0.4,93,0.00,,,0.00,WUHU216HW,2013-01-18 12:38:00,
2013-01-18 04:43:00,30.6,28.8,30.57,North,0,0.0,0.0,93,0.00,,,0.00,WUHU216HW,2013-01-18 12:43:00,
2013-01-18 04:48:00,30.6,28.8,30.57,North,0,0.0,0.2,93,0.00,,,0.00,WUHU216HW,2013-01-18 12:48:00,
2013-01-18 04:53:00,30.6,28.8,30.57,SSW,203,0.0,0.4,93,0.00,,,0.00,WUHU216HW,2013-01-18 12:53:00,
2013-01-18 04:58:00,30.6,28.8,30.57,SSW,203,0.0,0.4,93,0.00,,,0.00,WUHU216HW,2013-01-18 12:58:00,
2013-01-18 05:03:00,30.6,28.8,30.57,SSW,203,0.4,0.4,93,0.00,,,0.00,WUHU216HW,2013-01-18 13:03:00,
2013-01-18 05:08:00,30.6,28.8,30.57,SSE,158,0.7,0.9,93,0.00,,,0.00,WUHU216HW,2013-01-18 13:08:00,
2013-01-18 05:13:00,30.6,28.8,30.56,SSW,203,0.4,0.9,93,0.00,,,0.00,WUHU216HW,2013-01-18 13:13:00,
2013-01-18 05:18:00,30.4,28.6,30.56,SSW,203,0.4,0.9,93,0.00,,,0.00,WUHU216HW,2013-01-18 13:18:00,
2013-01-18 05:23:00,30.4,28.6,30.57,SSW,203,0.0,0.4,93,0.00,,,0.00,WUHU216HW,2013-01-18 13:23:00,
2013-01-18 05:28:00,30.2,28.4,30.57,NNW,338,0.0,0.7,93,0.00,,,0.00,WUHU216HW,2013-01-18 13:28:00,
2013-01-18 05:33:00,30.2,28.4,30.57,NNW,338,0.0,0.7,93,0.00,,,0.00,WUHU216HW,2013-01-18 13:33:00,
2013-01-18 05:38:00,30.4,28.6,30.57,NNW,338,0.0,0.0,93,0.00,,,0.00,WUHU216HW,2013-01-18 13:38:00,
2013-01-18 05:43:00,30.4,28.6,30.58,NNW,338,0.0,0.0,93,0.00,,,0.00,WUHU216HW,2013-01-18 13:43:00,
2013-01-18 05:48:00,30.4,28.6,30.58,NNW,338,0.0,1.1,93,0.00,,,0.00,WUHU216HW,2013-01-18 13:48:00,
2013-01-18 05:53:00,30.4,28.6,30.58,NNW,338,0.0,1.1,93,0.00,,,0.00,WUHU216HW,2013-01-18 13:53:00,
2013-01-18 05:58:00,30.4,28.6,30.57,NNW,338,0.0,0.0,93,0.00,,,0.00,WUHU216HW,2013-01-18 13:58:00,
2013-01-18 06:03:00,30.6,28.8,30.58,NNW,338,0.0,0.0,93,0.00,,,0.00,WUHU216HW,2013-01-18 14:03:00,
2013-01-18 06:08:00,30.6,28.8,30.58,NNW,338,0.0,0.0,93,0.00,,,0.00,WUHU216HW,2013-01-18 14:08:00,
2013-01-18 06:13:00,30.6,28.8,30.57,NNW,338,0.0,0.0,93,0.00,,,0.00,WUHU216HW,2013-01-18 14:13:00,
2013-01-18 06:18:00,30.6,28.8,30.58,North,0,0.7,0.7,93,0.00,,,0.00,WUHU216HW,2013-01-18 14:18:00,
2013-01-18 06:23:00,30.2,28.4,30.57,North,0,0.0,0.7,93,0.00,,,0.00,WUHU216HW,2013-01-18 14:23:00,
2013-01-18 06:28:00,30.1,28.3,30.58,North,0,0.0,0.4,93,0.00,,,0.00,WUHU216HW,2013-01-18 14:28:00,
2013-01-18 06:33:00,30.2,28.4,30.58,North,0,0.0,0.0,93,0.00,,,0.00,WUHU216HW,2013-01-18 14:33:00,
2013-01-18 06:38:00,30.4,28.6,30.58,SSW,203,0.4,1.1,93,0.00,,,0.00,WUHU216HW,2013-01-18 14:38:00,
2013-01-18 06:43:00,30.4,28.6,30.58,SSW,203,0.2,1.1,93,0.00,,,0.00,WUHU216HW,2013-01-18 14:43:00,
2013-01-18 06:48:00,30.6,28.8,30.58,SSW,203,0.0,0.9,93,0.00,,,0.00,WUHU216HW,2013-01-18 14:48:00,
2013-01-18 06:53:00,30.6,28.8,30.58,SSW,203,0.0,0.9,93,0.00,,,0.00,WUHU216HW,2013-01-18 14:53:00,
2013-01-18 06:58:00,30.6,28.8,30.57,SSW,203,0.4,1.6,93,0.00,,,0.00,WUHU216HW,2013-01-18 14:58:00,
2013-01-18 07:03:00,30.2,28.4,30.57,SE,135,0.2,1.6,93,0.00,,,0.00,WUHU216HW,2013-01-18 15:03:00,
2013-01-18 07:08:00,30.2,28.4,30.57,SSW,203,0.0,0.4,93,0.00,,,0.00,WUHU216HW,2013-01-18 15:08:00,
2013-01-18 07:13:00,30.2,28.4,30.57,WSW,248,0.0,0.4,93,0.00,,,0.00,WUHU216HW,2013-01-18 15:13:00,
2013-01-18 07:18:00,30.1,28.3,30.57,WSW,248,0.0,0.2,93,0.00,,,0.00,WUHU216HW,2013-01-18 15:18:00,
2013-01-18 07:23:00,29.9,27.9,30.57,WSW,248,0.0,0.2,92,0.00,,,0.00,WUHU216HW,2013-01-18 15:23:00,
2013-01-18 07:28:00,29.9,28.1,30.57,West,270,0.0,0.4,93,0.00,,,0.00,WUHU216HW,2013-01-18 15:28:00,
2013-01-18 07:33:00,29.7,27.9,30.57,West,270,0.0,0.4,93,0.00,,,0.00,WUHU216HW,2013-01-18 15:33:00,
2013-01-18 07:38:00,29.7,27.9,30.57,NNW,338,0.0,0.2,93,0.00,,,0.00,WUHU216HW,2013-01-18 15:38:00,
2013-01-18 07:43:00,29.7,27.9,30.58,NNW,338,0.0,0.2,93,0.00,,,0.00,WUHU216HW,2013-01-18 15:43:00,
2013-01-18 07:48:00,29.7,27.9,30.58,NNW,338,0.0,0.2,93,0.00,,,0.00,WUHU216HW,2013-01-18 15:48:00,
2013-01-18 07:53:00,29.7,27.9,30.58,NNW,338,0.0,0.2,93,0.00,,,0.00,WUHU216HW,2013-01-18 15:53:00,
2013-01-18 07:58:00,29.9,28.1,30.58,NNW,338,0.0,0.0,93,0.00,,,0.00,WUHU216HW,2013-01-18 15:58:00,
2013-01-18 08:03:00,29.9,28.1,30.58,NNW,338,0.0,0.0,93,0.00,,,0.00,WUHU216HW,2013-01-18 16:03:00,
2013-01-18 08:08:00,30.1,28.3,30.58,NNW,338,0.0,0.0,93,0.00,,,0.00,WUHU216HW,2013-01-18 16:08:00,
2013-01-18 08:13:00,30.1,28.3,30.58,NNW,338,0.0,0.0,93,0.00,,,0.00,WUHU216HW,2013-01-18 16:13:00,
2013-01-18 08:18:00,30.2,28.4,30.58,NNW,338,0.0,0.0,93,0.00,,,0.00,WUHU216HW,2013-01-18 16:18:00,
2013-01-18 08:23:00,30.2,28.4,30.58,South,180,1.3,1.3,93,0.00,,,0.00,WUHU216HW,2013-01-18 16:23:00,
2013-01-18 08:28:00,30.2,28.4,30.58,South,180,0.0,1.3,93,0.00,,,0.00,WUHU216HW,2013-01-18 16:28:00,
2013-01-18 08:33:00,30.2,28.4,30.58,SSE,158,0.2,1.1,93,0.00,,,0.00,WUHU216HW,2013-01-18 16:33:00,
2013-01-18 08:38:00,30.2,28.4,30.59,SSE,158,0.0,0.2,93,0.00,,,0.00,WUHU216HW,2013-01-18 16:38:00,
2013-01-18 08:43:00,30.1,28.3,30.59,SSE,158,0.0,0.0,93,0.00,,,0.00,WUHU216HW,2013-01-18 16:43:00,
2013-01-18 08:48:00,30.1,28.3,30.59,SSE,158,0.0,0.0,93,0.00,,,0.00,WUHU216HW,2013-01-18 16:48:00,
2013-01-18 08:53:00,29.9,28.1,30.59,SSE,158,0.0,0.0,93,0.00,,,0.00,WUHU216HW,2013-01-18 16:53:00,
2013-01-18 08:58:00,29.9,28.1,30.60,NNW,338,0.0,0.4,93,0.00,,,0.00,WUHU216HW,2013-01-18 16:58:00,
2013-01-18 09:03:00,29.9,28.1,30.60,NNW,338,0.0,0.4,93,0.00,,,0.00,WUHU216HW,2013-01-18 17:03:00,
2013-01-18 09:08:00,29.9,28.1,30.61,North,0,0.4,0.4,93,0.00,,,0.00,WUHU216HW,2013-01-18 17:08:00,
2013-01-18 09:13:00,30.1,28.3,30.61,North,0,0.0,0.4,93,0.00,,,0.00,WUHU216HW,2013-01-18 17:13:00,
2013-01-18 09:18:00,30.1,28.3,30.61,North,0,0.0,0.4,93,0.00,,,0.00,WUHU216HW,2013-01-18 17:18:00,
2013-01-18 09:23:00,30.2,28.4,30.61,North,0,0.0,0.0,93,0.00,,,0.00,WUHU216HW,2013-01-18 17:23:00,
2013-01-18 09:28:00,30.4,28.6,30.61,North,0,0.0,0.0,93,0.00,,,0.00,WUHU216HW,2013-01-18 17:28:00,
2013-01-18 09:33:00,30.8,29.0,30.61,North,0,0.0,0.0,93,0.00,,,0.00,WUHU216HW,2013-01-18 17:33:00,
2013-01-18 09:38:00,31.0,29.2,30.61,NNE,23,0.0,0.4,93,0.00,,,0.00,WUHU216HW,2013-01-18 17:38:00,
2013-01-18 09:43:00,31.1,29.3,30.61,NNE,23,0.0,0.4,93,0.00,,,0.00,WUHU216HW,2013-01-18 17:43:00,
2013-01-18 09:48:00,31.3,29.5,30.61,NNE,23,0.0,0.0,93,0.00,,,0.00,WUHU216HW,2013-01-18 17:48:00,
2013-01-18 09:53:00,31.5,29.7,30.62,NNE,23,0.0,0.0,93,0.00,,,0.00,WUHU216HW,2013-01-18 17:53:00,
2013-01-18 09:58:00,31.7,29.9,30.62,NNE,23,0.0,0.0,93,0.00,,,0.00,WUHU216HW,2013-01-18 17:58:00,
2013-01-18 10:03:00,31.9,30.1,30.62,NNE,23,0.0,0.0,93,0.00,,,0.00,WUHU216HW,2013-01-18 18:03:00,
2013-01-18 10:08:00,32.0,30.2,30.62,SSW,203,2.5,2.5,93,0.00,,,0.00,WUHU216HW,2013-01-18 18:08:00,
2013-01-18 10:13:00,32.0,30.2,30.62,SSW,203,0.4,2.5,93,0.00,,,0.00,WUHU216HW,2013-01-18 18:13:00,
2013-01-18 10:18:00,32.0,30.2,30.61,ESE,113,0.0,1.1,93,0.00,,,0.00,WUHU216HW,2013-01-18 18:18:00,
2013-01-18 10:23:00,31.9,30.1,30.61,ESE,113,0.0,1.1,93,0.00,,,0.00,WUHU216HW,2013-01-18 18:23:00,
2013-01-18 10:28:00,32.0,30.2,30.62,ESE,113,0.0,0.0,93,0.00,,,0.00,WUHU216HW,2013-01-18 18:28:00,
2013-01-18 10:33:00,32.2,30.4,30.61,SW,225,0.0,1.3,93,0.00,,,0.00,WUHU216HW,2013-01-18 18:33:00,
2013-01-18 10:38:00,32.4,30.6,30.61,SW,225,0.4,1.3,93,0.00,,,0.00,WUHU216HW,2013-01-18 18:38:00,
2013-01-18 10:43:00,32.4,30.6,30.62,South,180,0.0,0.9,93,0.00,,,0.00,WUHU216HW,2013-01-18 18:43:00,
2013-01-18 10:48:00,32.6,30.8,30.62,SSE,158,1.1,1.1,93,0.00,,,0.00,WUHU216HW,2013-01-18 18:48:00,
2013-01-18 10:53:00,32.6,30.8,30.61,South,180,1.1,1.1,93,0.00,,,0.00,WUHU216HW,2013-01-18 18:53:00,
2013-01-18 10:58:00,32.4,30.6,30.61,WSW,248,1.1,1.1,93,0.00,,,0.00,WUHU216HW,2013-01-18 18:58:00,
2013-01-18 11:03:00,32.6,30.8,30.61,SSW,203,0.7,1.1,93,0.00,,,0.00,WUHU216HW,2013-01-18 19:03:00,
2013-01-18 11:08:00,32.6,30.8,30.61,South,180,1.3,1.3,93,0.00,,,0.00,WUHU216HW,2013-01-18 19:08:00,
2013-01-18 11:13:00,32.6,30.8,30.61,SSW,203,0.0,1.3,93,0.00,,,0.00,WUHU216HW,2013-01-18 19:13:00,
2013-01-18 11:18:00,32.8,31.0,30.61,South,180,0.7,1.3,93,0.00,,,0.00,WUHU216HW,2013-01-18 19:18:00,
2013-01-18 11:23:00,32.8,31.0,30.61,South,180,0.0,0.7,93,0.00,,,0.00,WUHU216HW,2013-01-18 19:23:00,
2013-01-18 11:28:00,32.9,31.2,30.61,South,180,0.4,0.4,93,0.00,,,0.00,WUHU216HW,2013-01-18 19:28:00,
2013-01-18 11:33:00,32.9,31.2,30.61,North,0,0.0,1.1,93,0.00,,,0.00,WUHU216HW,2013-01-18 19:33:00,
2013-01-18 11:38:00,33.1,31.3,30.60,NNE,23,0.0,1.1,93,0.00,,,0.00,WUHU216HW,2013-01-18 19:38:00,
2013-01-18 11:43:00,33.3,31.4,30.60,NNE,23,0.2,0.2,93,0.00,,,0.00,WUHU216HW,2013-01-18 19:43:00,
2013-01-18 11:48:00,33.5,31.6,30.60,NNE,23,0.0,0.2,93,0.00,,,0.00,WUHU216HW,2013-01-18 19:48:00,
2013-01-18 11:53:00,34.0,32.4,30.60,NNE,23,0.0,0.0,94,0.00,,,0.00,WUHU216HW,2013-01-18 19:53:00,
2013-01-18 11:58:00,34.2,32.6,30.61,NNE,23,0.0,0.0,94,0.00,,,0.00,WUHU216HW,2013-01-18 19:58:00,
2013-01-18 12:03:00,34.4,32.8,30.61,NNE,23,0.0,0.0,94,0.00,,,0.00,WUHU216HW,2013-01-18 20:03:00,
2013-01-18 12:08:00,34.4,32.8,30.60,SSE,158,0.9,0.9,94,0.00,,,0.00,WUHU216HW,2013-01-18 20:08:00,
2013-01-18 12:13:00,34.6,32.9,30.61,South,180,0.0,0.9,94,0.00,,,0.00,WUHU216HW,2013-01-18 20:13:00,
2013-01-18 12:18:00,34.7,33.1,30.61,South,180,0.0,0.4,94,0.00,,,0.00,WUHU216HW,2013-01-18 20:18:00,
2013-01-18 12:23:00,34.7,33.1,30.61,South,180,0.0,0.4,94,0.00,,,0.00,WUHU216HW,2013-01-18 20:23:00,
2013-01-18 12:28:00,34.9,33.3,30.61,North,0,1.3,1.3,94,0.00,,,0.00,WUHU216HW,2013-01-18 20:28:00,
2013-01-18 12:33:00,34.9,33.3,30.61,North,0,0.9,1.3,94,0.00,,,0.00,WUHU216HW,2013-01-18 20:33:00,
2013-01-18 12:38:00,35.1,33.5,30.61,North,0,0.0,0.9,94,0.00,,,0.00,WUHU216HW,2013-01-18 20:38:00,
2013-01-18 12:43:00,35.3,33.7,30.61,North,0,0.0,1.1,94,0.00,,,0.00,WUHU216HW,2013-01-18 20:43:00,
2013-01-18 12:48:00,35.1,33.5,30.61,North,0,0.2,1.1,94,0.00,,,0.00,WUHU216HW,2013-01-18 20:48:00,
2013-01-18 12:53:00,35.1,33.5,30.61,North,0,0.7,0.7,94,0.00,,,0.00,WUHU216HW,2013-01-18 20:53:00,
2013-01-18 12:58:00,35.3,33.7,30.60,North,0,0.0,0.7,94,0.00,,,0.00,WUHU216HW,2013-01-18 20:58:00,
2013-01-18 13:03:00,35.3,33.7,30.61,North,0,0.7,0.7,94,0.00,,,0.00,WUHU216HW,2013-01-18 21:03:00,
2013-01-18 13:08:00,35.3,33.7,30.61,North,0,0.0,0.7,94,0.00,,,0.00,WUHU216HW,2013-01-18 21:08:00,
2013-01-18 13:13:00,35.3,33.7,30.60,North,0,0.0,0.4,94,0.00,,,0.00,WUHU216HW,2013-01-18 21:13:00,
2013-01-18 13:18:00,35.5,33.8,30.61,North,0,0.0,1.3,94,0.00,,,0.00,WUHU216HW,2013-01-18 21:18:00,
2013-01-18 13:23:00,35.5,33.8,30.60,NNW,338,0.4,2.2,94,0.00,,,0.00,WUHU216HW,2013-01-18 21:23:00,
2013-01-18 13:28:00,35.6,34.0,30.61,NNW,338,0.0,2.2,94,0.00,,,0.00,WUHU216HW,2013-01-18 21:28:00,
2013-01-18 13:33:00,35.6,34.0,30.61,NNW,338,1.1,1.1,94,0.00,,,0.00,WUHU216HW,2013-01-18 21:33:00,
2013-01-18 13:38:00,35.6,34.0,30.61,North,0,1.1,1.1,94,0.00,,,0.00,WUHU216HW,2013-01-18 21:38:00,
2013-01-18 13:43:00,35.6,34.0,30.61,North,0,0.0,1.1,94,0.00,,,0.00,WUHU216HW,2013-01-18 21:43:00,
2013-01-18 13:48:00,35.6,34.0,30.61,North,0,0.4,0.4,94,0.00,,,0.00,WUHU216HW,2013-01-18 21:48:00,
2013-01-18 13:53:00,35.6,34.0,30.61,North,0,0.9,0.9,94,0.00,,,0.00,WUHU216HW,2013-01-18 21:53:00,
2013-01-18 13:58:00,35.6,34.0,30.61,North,0,0.2,0.9,94,0.00,,,0.00,WUHU216HW,2013-01-18 21:58:00,
2013-01-18 14:03:00,35.8,34.2,30.61,ENE,68,0.0,0.7,94,0.00,,,0.00,WUHU216HW,2013-01-18 22:03:00,
2013-01-18 14:08:00,35.8,34.2,30.60,NE,45,0.0,0.4,94,0.00,,,0.00,WUHU216HW,2013-01-18 22:08:00,
2013-01-18 14:13:00,35.8,34.2,30.60,NNW,338,0.0,0.4,94,0.00,,,0.00,WUHU216HW,2013-01-18 22:13:00,
2013-01-18 14:18:00,35.8,34.2,30.60,NNW,338,0.0,0.4,94,0.00,,,0.00,WUHU216HW,2013-01-18 22:18:00,
2013-01-18 14:23:00,36.0,34.4,30.61,NNW,338,0.4,0.4,94,0.00,,,0.00,WUHU216HW,2013-01-18 22:23:00,
2013-01-18 14:28:00,36.0,34.4,30.60,NNW,338,0.0,0.4,94,0.00,,,0.00,WUHU216HW,2013-01-18 22:28:00,
2013-01-18 14:33:00,36.0,34.1,30.60,NNW,338,0.0,0.2,93,0.00,,,0.00,WUHU216HW,2013-01-18 22:33:00,
2013-01-18 14:38:00,36.0,34.1,30.60,NNW,338,0.0,0.2,93,0.00,,,0.00,WUHU216HW,2013-01-18 22:38:00,
2013-01-18 14:43:00,36.0,34.1,30.60,WNW,293,0.0,0.2,93,0.00,,,0.00,WUHU216HW,2013-01-18 22:43:00,
2013-01-18 14:48:00,36.0,34.1,30.60,WNW,293,0.0,0.2,93,0.00,,,0.00,WUHU216HW,2013-01-18 22:48:00,
2013-01-18 14:53:00,36.0,34.1,30.60,WNW,293,0.0,0.0,93,0.00,,,0.00,WUHU216HW,2013-01-18 22:53:00,
2013-01-18 14:58:00,36.2,34.3,30.60,WNW,293,0.0,0.0,93,0.00,,,0.00,WUHU216HW,2013-01-18 22:58:00,
2013-01-18 15:03:00,36.0,34.1,30.60,WNW,293,0.4,0.4,93,0.00,,,0.00,WUHU216HW,2013-01-18 23:03:00,
2013-01-18 15:08:00,36.0,34.1,30.61,WNW,293,0.0,0.4,93,0.00,,,0.00,WUHU216HW,2013-01-18 23:08:00,
2013-01-18 15:13:00,36.0,34.1,30.61,WNW,293,0.0,0.0,93,0.00,,,0.00,WUHU216HW,2013-01-18 23:13:00,
2013-01-18 15:18:00,35.8,33.9,30.61,WNW,293,0.0,0.2,93,0.00,,,0.00,WUHU216HW,2013-01-18 23:18:00,
2013-01-18 15:23:00,35.8,33.9,30.60,WNW,293,0.0,0.2,93,0.00,,,0.00,WUHU216HW,2013-01-18 23:23:00,
2013-01-18 15:28:00,35.8,33.9,30.60,WNW,293,0.0,0.0,93,0.00,,,0.00,WUHU216HW,2013-01-18 23:28:00,
2013-01-18 15:33:00,35.6,33.8,30.60,WNW,293,0.0,0.0,93,0.00,,,0.00,WUHU216HW,2013-01-18 23:33:00,
2013-01-18 15:38:00,35.6,33.8,30.61,NW,315,0.0,0.2,93,0.00,,,0.00,WUHU216HW,2013-01-18 23:38:00,
2013-01-18 15:43:00,35.6,33.8,30.61,NW,315,0.0,0.2,93,0.00,,,0.00,WUHU216HW,2013-01-18 23:43:00,
2013-01-18 15:48:00,35.6,33.8,30.61,NW,315,0.0,0.0,93,0.00,,,0.00,WUHU216HW,2013-01-18 23:48:00,
2013-01-18 15:53:00,35.6,33.8,30.61,NW,315,0.0,0.0,93,0.00,,,0.00,WUHU216HW,2013-01-18 23:53:00,
2013-01-18 15:58:00,35.6,33.8,30.61,NW,315,0.0,0.0,93,0.00,,,0.00,WUHU216HW,2013-01-18 23:58:00,
2013-01-18 16:03:00,35.6,33.8,30.61,NW,315,0.0,0.0,93,0.00,,,0.00,WUHU216HW,2013-01-19 00:03:00,
2013-01-18 16:08:00,35.3,33.4,30.61,NW,315,0.0,0.0,93,0.00,,,0.00,WUHU216HW,2013-01-19 00:08:00,
2013-01-18 16:13:00,35.1,33.2,30.61,NW,315,0.0,0.0,93,0.00,,,0.00,WUHU216HW,2013-01-19 00:13:00,
2013-01-18 16:19:00,35.1,33.2,30.61,NW,315,0.0,0.0,93,0.00,,,0.00,WUHU216HW,2013-01-19 00:19:00,
2013-01-18 16:24:00,35.3,33.4,30.61,NW,315,0.0,0.0,93,0.00,,,0.00,WUHU216HW,2013-01-19 00:24:00,
2013-01-18 16:29:00,35.3,33.4,30.61,NW,315,0.0,0.0,93,0.00,,,0.00,WUHU216HW,2013-01-19 00:29:00,
2013-01-18 16:34:00,35.3,33.4,30.61,NW,315,0.0,0.0,93,0.00,,,0.00,WUHU216HW,2013-01-19 00:34:00,
2013-01-18 16:39:00,35.1,33.2,30.61,NW,315,0.0,0.0,93,0.00,,,0.00,WUHU216HW,2013-01-19 00:39:00,
2013-01-18 16:43:00,35.3,33.4,30.61,West,270,0.0,0.7,93,0.00,,,0.00,WUHU216HW,2013-01-19 00:43:00,
2013-01-18 16:48:00,35.3,33.4,30.61,West,270,0.0,0.7,93,0.00,,,0.00,WUHU216HW,2013-01-19 00:48:00,
2013-01-18 16:53:00,35.3,33.4,30.61,West,270,0.0,0.0,93,0.00,,,0.00,WUHU216HW,2013-01-19 00:53:00,
2013-01-18 16:58:00,35.1,33.2,30.61,West,270,0.0,0.0,93,0.00,,,0.00,WUHU216HW,2013-01-19 00:58:00,
2013-01-18 17:03:00,34.9,33.0,30.61,West,270,0.0,0.2,93,0.00,,,0.00,WUHU216HW,2013-01-19 01:03:00,
2013-01-18 17:08:00,34.9,33.0,30.61,West,270,0.0,0.2,93,0.00,,,0.00,WUHU216HW,2013-01-19 01:08:00,
2013-01-18 17:13:00,34.6,32.7,30.61,NW,315,0.0,0.0,93,0.00,,,0.00,WUHU216HW,2013-01-19 01:13:00,
2013-01-18 17:18:00,34.6,32.7,30.61,NW,315,0.0,0.0,93,0.00,,,0.00,WUHU216HW,2013-01-19 01:18:00,
2013-01-18 17:23:00,34.4,32.5,30.61,NW,315,0.0,0.0,93,0.00,,,0.00,WUHU216HW,2013-01-19 01:23:00,
2013-01-18 17:28:00,34.2,32.3,30.61,NW,315,0.0,0.0,93,0.00,,,0.00,WUHU216HW,2013-01-19 01:28:00,
2013-01-18 17:34:00,34.2,32.3,30.61,NW,315,0.0,0.0,93,0.00,,,0.00,WUHU216HW,2013-01-19 01:34:00,
2013-01-18 17:39:00,34.4,32.5,30.61,NW,315,0.0,0.0,93,0.00,,,0.00,WUHU216HW,2013-01-19 01:39:00,
2013-01-18 17:44:00,34.2,32.3,30.61,NW,315,0.0,0.0,93,0.00,,,0.00,WUHU216HW,2013-01-19 01:44:00,
2013-01-18 17:49:00,34.0,32.1,30.61,NW,315,0.0,0.0,93,0.00,,,0.00,WUHU216HW,2013-01-19 01:49:00,
2013-01-18 17:54:00,33.8,32.0,30.61,NW,315,0.0,0.0,93,0.00,,,0.00,WUHU216HW,2013-01-19 01:54:00,
2013-01-18 17:59:00,34.0,32.4,30.61,NW,315,0.0,0.0,94,0.00,,,0.00,WUHU216HW,2013-01-19 01:59:00,
2013-01-18 18:04:00,34.0,32.1,30.62,NW,315,0.0,0.0,93,0.00,,,0.00,WUHU216HW,2013-01-19 02:04:00,
2013-01-18 18:09:00,34.2,32.6,30.61,NW,315,0.0,0.0,94,0.00,,,0.00,WUHU216HW,2013-01-19 02:09:00,
2013-01-18 18:14:00,34.2,32.3,30.62,NW,315,0.0,0.0,93,0.00,,,0.00,WUHU216HW,2013-01-19 02:14:00,
2013-01-18 18:19:00,34.2,32.3,30.62,NW,315,0.0,0.0,93,0.00,,,0.00,WUHU216HW,2013-01-19 02:19:00,
2013-01-18 18:24:00,34.0,32.1,30.62,NW,315,0.0,0.0,93,0.00,,,0.00,WUHU216HW,2013-01-19 02:24:00,
2013-01-18 18:29:00,34.0,32.1,30.62,NW,315,0.0,0.0,93,0.00,,,0.00,WUHU216HW,2013-01-19 02:29:00,
2013-01-18 18:33:00,34.2,32.3,30.62,NW,315,1.3,1.3,93,0.00,,,0.00,WUHU216HW,2013-01-19 02:33:00,
2013-01-18 18:38:00,33.8,32.0,30.62,WNW,293,0.0,1.3,93,0.00,,,0.00,WUHU216HW,2013-01-19 02:38:00,
2013-01-18 18:44:00,33.5,31.3,30.62,WNW,293,0.0,1.3,92,0.00,,,0.00,WUHU216HW,2013-01-19 02:44:00,
2013-01-18 18:48:00,33.5,31.3,30.62,NNW,338,0.0,0.0,92,0.00,,,0.00,WUHU216HW,2013-01-19 02:48:00,
2013-01-18 18:53:00,33.5,31.6,30.62,South,180,0.2,1.1,93,0.00,,,0.00,WUHU216HW,2013-01-19 02:53:00,
2013-01-18 18:59:00,33.5,31.6,30.62,South,180,0.0,1.1,93,0.00,,,0.00,WUHU216HW,2013-01-19 02:59:00,
2013-01-18 19:03:00,33.7,31.8,30.62,South,180,0.0,0.4,93,0.00,,,0.00,WUHU216HW,2013-01-19 03:03:00,
2013-01-18 19:08:00,33.5,31.6,30.62,South,180,0.0,0.0,93,0.00,,,0.00,WUHU216HW,2013-01-19 03:08:00,
2013-01-18 19:14:00,33.5,31.6,30.62,NNW,338,0.0,1.1,93,0.00,,,0.00,WUHU216HW,2013-01-19 03:14:00,
2013-01-18 19:19:00,33.3,31.1,30.61,SSW,203,1.3,1.8,92,0.00,,,0.00,WUHU216HW,2013-01-19 03:19:00,
2013-01-18 19:24:00,33.1,31.1,30.62,SSW,203,0.0,1.8,92,0.00,,,0.00,WUHU216HW,2013-01-19 03:24:00,
2013-01-18 19:29:00,33.1,31.3,30.62,SSW,203,0.0,0.9,93,0.00,,,0.00,WUHU216HW,2013-01-19 03:29:00,
2013-01-18 19:34:00,33.1,31.1,30.62,SSW,203,0.0,0.0,92,0.00,,,0.00,WUHU216HW,2013-01-19 03:34:00,
2013-01-18 19:39:00,33.1,31.1,30.62,SSW,203,0.0,0.0,92,0.00,,,0.00,WUHU216HW,2013-01-19 03:39:00,
2013-01-18 19:44:00,33.1,31.1,30.62,North,0,0.0,0.0,92,0.00,,,0.00,WUHU216HW,2013-01-19 03:44:00,
2013-01-18 19:49:00,32.8,30.7,30.62,NW,315,0.4,1.3,92,0.00,,,0.00,WUHU216HW,2013-01-19 03:49:00,
2013-01-18 19:54:00,32.4,30.3,30.62,NW,315,1.1,1.3,92,0.00,,,0.00,WUHU216HW,2013-01-19 03:54:00,
2013-01-18 19:59:00,32.2,30.2,30.62,NW,315,0.4,1.6,92,0.00,,,0.00,WUHU216HW,2013-01-19 03:59:00,
2013-01-18 20:04:00,32.2,30.4,30.63,NW,315,0.2,1.8,93,0.00,,,0.00,WUHU216HW,2013-01-19 04:04:00,
2013-01-18 20:09:00,32.2,30.4,30.62,NNW,338,0.9,1.8,93,0.00,,,0.00,WUHU216HW,2013-01-19 04:09:00,
2013-01-18 20:14:00,32.0,30.2,30.63,NNW,338,0.0,0.9,93,0.00,,,0.00,WUHU216HW,2013-01-19 04:14:00,
2013-01-18 20:19:00,32.0,30.2,30.63,NNW,338,0.0,0.4,93,0.00,,,0.00,WUHU216HW,2013-01-19 04:19:00,
2013-01-18 20:24:00,32.0,30.2,30.63,NNW,338,0.0,0.4,93,0.00,,,0.00,WUHU216HW,2013-01-19 04:24:00,
2013-01-18 20:29:00,32.0,30.2,30.63,North,0,0.0,1.1,93,0.00,,,0.00,WUHU216HW,2013-01-19 04:29:00,
2013-01-18 20:34:00,32.0,30.2,30.63,North,0,0.0,1.1,93,0.00,,,0.00,WUHU216HW,2013-01-19 04:34:00,
2013-01-18 20:39:00,32.0,30.2,30.63,North,0,0.0,0.4,93,0.00,,,0.00,WUHU216HW,2013-01-19 04:39:00,
2013-01-18 20:44:00,32.0,30.2,30.63,North,0,0.0,0.2,93,0.00,,,0.00,WUHU216HW,2013-01-19 04:44:00,
2013-01-18 20:49:00,31.9,30.1,30.63,North,0,0.2,1.1,93,0.00,,,0.00,WUHU216HW,2013-01-19 04:49:00,
2013-01-18 20:54:00,31.9,30.1,30.64,NNW,338,0.0,1.1,93,0.00,,,0.00,WUHU216HW,2013-01-19 04:54:00,
2013-01-18 20:59:00,31.7,29.9,30.64,NNW,338,0.0,1.1,93,0.00,,,0.00,WUHU216HW,2013-01-19 04:59:00,
2013-01-18 21:00:00,31.7,29.9,30.64,NNW,338,0.0,0.7,93,0.00,,,0.00,WUHU216HW,2013-01-19 05:00:00,
2013-01-18 21:03:00,31.7,29.9,30.64,NNW,338,0.4,0.9,93,0.00,,,0.00,WUHU216HW,2013-01-19 05:03:00,
2013-01-18 21:08:00,31.5,29.7,30.64,NNW,338,0.0,0.9,93,0.00,,,0.00,WUHU216HW,2013-01-19 05:08:00,
2013-01-18 21:13:00,31.7,29.9,30.64,NNW,338,0.0,0.2,93,0.00,,,0.00,WUHU216HW,2013-01-19 05:13:00,
2013-01-18 21:18:00,31.7,29.9,30.65,NW,315,0.0,0.2,93,0.00,,,0.00,WUHU216HW,2013-01-19 05:18:00,
2013-01-18 21:23:00,31.9,30.1,30.65,SSE,158,0.0,0.4,93,0.00,,,0.00,WUHU216HW,2013-01-19 05:23:00,
2013-01-18 21:28:00,31.7,29.7,30.65,NW,315,0.2,1.3,92,0.00,,,0.00,WUHU216HW,2013-01-19 05:28:00,
2013-01-18 21:33:00,31.5,29.5,30.65,WSW,248,0.0,1.3,92,0.00,,,0.00,WUHU216HW,2013-01-19 05:33:00,
2013-01-18 21:38:00,31.3,29.5,30.65,WSW,248,0.0,0.4,93,0.00,,,0.00,WUHU216HW,2013-01-19 05:38:00,
2013-01-18 21:43:00,31.3,29.5,30.65,NW,315,0.0,1.8,93,0.00,,,0.00,WUHU216HW,2013-01-19 05:43:00,
2013-01-18 21:48:00,31.3,29.5,30.65,NW,315,0.0,1.8,93,0.00,,,0.00,WUHU216HW,2013-01-19 05:48:00,
2013-01-18 21:53:00,31.3,29.4,30.65,North,0,0.4,1.8,92,0.00,,,0.00,WUHU216HW,2013-01-19 05:53:00,
2013-01-18 21:58:00,31.1,29.3,30.65,SW,225,1.1,1.8,93,0.00,,,0.00,WUHU216HW,2013-01-19 05:58:00,
2013-01-18 22:03:00,31.1,29.3,30.65,South,180,0.0,1.1,93,0.00,,,0.00,WUHU216HW,2013-01-19 06:03:00,
2013-01-18 22:08:00,31.1,29.3,30.65,SSW,203,0.7,0.7,93,0.00,,,0.00,WUHU216HW,2013-01-19 06:08:00,
2013-01-18 22:13:00,31.3,29.5,30.65,West,270,0.9,0.9,93,0.00,,,0.00,WUHU216HW,2013-01-19 06:13:00,
2013-01-18 22:18:00,31.1,29.3,30.65,NNW,338,0.0,2.2,93,0.00,,,0.00,WUHU216HW,2013-01-19 06:18:00,
2013-01-18 22:23:00,31.0,29.2,30.66,NW,315,0.2,2.2,93,0.00,,,0.00,WUHU216HW,2013-01-19 06:23:00,
2013-01-18 22:28:00,30.8,29.0,30.65,NW,315,0.0,1.1,93,0.00,,,0.00,WUHU216HW,2013-01-19 06:28:00,
2013-01-18 22:33:00,31.0,29.2,30.65,WNW,293,0.4,0.4,93,0.00,,,0.00,WUHU216HW,2013-01-19 06:33:00,
2013-01-18 22:38:00,31.1,29.3,30.65,WNW,293,0.0,0.4,93,0.00,,,0.00,WUHU216HW,2013-01-19 06:38:00,
2013-01-18 22:43:00,31.1,29.3,30.65,WSW,248,0.0,0.4,93,0.00,,,0.00,WUHU216HW,2013-01-19 06:43:00,
2013-01-18 22:48:00,31.1,29.3,30.65,SW,225,0.0,0.4,93,0.00,,,0.00,WUHU216HW,2013-01-19 06:48:00,
2013-01-18 22:53:00,31.3,29.5,30.65,SSW,203,0.0,0.2,93,0.00,,,0.00,WUHU216HW,2013-01-19 06:53:00,
2013-01-18 22:58:00,31.3,29.5,30.65,SSW,203,0.2,0.2,93,0.00,,,0.00,WUHU216HW,2013-01-19 06:58:00,
2013-01-18 23:03:00,31.3,29.5,30.65,SSW,203,0.0,0.2,93,0.00,,,0.00,WUHU216HW,2013-01-19 07:03:00,
2013-01-18 23:08:00,31.3,29.5,30.65,SSW,203,0.0,0.0,93,0.00,,,0.00,WUHU216HW,2013-01-19 07:08:00,
2013-01-18 23:13:00,31.1,29.2,30.65,NW,315,0.0,2.5,92,0.00,,,0.00,WUHU216HW,2013-01-19 07:13:00,
2013-01-18 23:18:00,31.1,29.3,30.65,NW,315,0.0,2.5,93,0.00,,,0.00,WUHU216HW,2013-01-19 07:18:00,
2013-01-18 23:23:00,31.1,29.3,30.65,NW,315,0.0,0.0,93,0.00,,,0.00,WUHU216HW,2013-01-19 07:23:00,
2013-01-18 23:28:00,31.1,29.3,30.65,NW,315,0.2,0.2,93,0.00,,,0.00,WUHU216HW,2013-01-19 07:28:00,
2013-01-18 23:33:00,31.1,29.3,30.65,NW,315,0.0,0.2,93,0.00,,,0.00,WUHU216HW,2013-01-19 07:33:00,
2013-01-18 23:38:00,31.1,29.3,30.65,NW,315,0.0,0.0,93,0.00,,,0.00,WUHU216HW,2013-01-19 07:38:00,
2013-01-18 23:43:00,31.1,29.3,30.65,NW,315,0.0,0.0,93,0.00,,,0.00,WUHU216HW,2013-01-19 07:43:00,
2013-01-18 23:48:00,31.0,29.2,30.65,NW,315,0.4,0.4,93,0.00,,,0.00,WUHU216HW,2013-01-19 07:48:00,
2013-01-18 23:53:00,31.0,29.2,30.65,WNW,293,0.0,0.4,93,0.00,,,0.00,WUHU216HW,2013-01-19 07:53:00,
2013-01-18 23:58:00,31.1,29.3,30.65,WNW,293,0.0,0.4,93,0.00,,,0.00,WUHU216HW,2013-01-19 07:58:00,